Hourly Weather Barnstable

Today, 24 June, Thursday

Time Temperature Precipitation Wind Pressure Humidity
00:00 +14°C° 0 mm 3 mps 769 mmHg 71%
01:00 +14°C° 0 mm 3 mps 769 mmHg 73%
02:00 +14°C° 0 mm 3 mps 770 mmHg 75%
03:00 +15°C° 0 mm 2 mps 770 mmHg 77%
04:00 +15°C° 0 mm 1 mps 770 mmHg 79%
05:00 +16°C° 0 mm 2 mps 771 mmHg 71%
06:00 +18°C° 0 mm 2 mps 771 mmHg 63%
07:00 +20°C° 0 mm 2 mps 771 mmHg 55%
08:00 +21°C° 0 mm 3 mps 772 mmHg 48%
09:00 +22°C° 0 mm 4 mps 772 mmHg 42%
10:00 +25°C° 0 mm 4 mps 772 mmHg 35%
11:00 +25°C° 0 mm 5 mps 772 mmHg 35%
12:00 +25°C° 0 mm 5 mps 772 mmHg 35%
13:00 +24°C° 0 mm 6 mps 772 mmHg 35%
14:00 +23°C° 0 mm 5 mps 771 mmHg 36%
15:00 +22°C° 0 mm 5 mps 771 mmHg 38%
16:00 +22°C° 0 mm 5 mps 771 mmHg 39%
17:00 +20°C° 0 mm 5 mps 771 mmHg 49%
18:00 +19°C° 0 mm 6 mps 771 mmHg 58%
19:00 +17°C° 0 mm 6 mps 771 mmHg 68%
20:00 +17°C° 0 mm 5 mps 771 mmHg 70%
21:00 +17°C° 0 mm 5 mps 771 mmHg 73%
22:00 +19°C° 0 mm 4 mps 771 mmHg 76%
23:00 +17°C° 0.3 mm 5 mps 770 mmHg 82%

Tomorrow, 25 June, Friday

Time Temperature Precipitation Wind Pressure Humidity
00:00 +17°C° 0.3 mm 5 mps 770 mmHg 89%
01:00 +17°C° 0.3 mm 5 mps 770 mmHg 95%
02:00 +17°C° 0.1 mm 5 mps 770 mmHg 96%
03:00 +19°C° 0.1 mm 5 mps 769 mmHg 97%
04:00 +19°C° 0.1 mm 5 mps 769 mmHg 98%
05:00 +20°C° 0 mm 5 mps 769 mmHg 97%
06:00 +21°C° 0 mm 5 mps 769 mmHg 96%
07:00 +22°C° 0 mm 5 mps 769 mmHg 95%
08:00 +23°C° 0.3 mm 5 mps 769 mmHg 90%
09:00 +25°C° 0.3 mm 5 mps 769 mmHg 85%
10:00 +26°C° 0.3 mm 5 mps 769 mmHg 80%
11:00 +27°C° 0.1 mm 6 mps 769 mmHg 73%
12:00 +27°C° 0.1 mm 6 mps 769 mmHg 65%
13:00 +27°C° 0.1 mm 6 mps 768 mmHg 58%
14:00 +27°C° 0 mm 6 mps 768 mmHg 62%
15:00 +26°C° 0 mm 6 mps 768 mmHg 65%
16:00 +26°C° 0 mm 6 mps 768 mmHg 68%
17:00 +23°C° 0 mm 6 mps 768 mmHg 73%
18:00 +22°C° 0 mm 6 mps 768 mmHg 78%
19:00 +21°C° 0 mm 6 mps 769 mmHg 82%
20:00 +21°C° 0 mm 5 mps 769 mmHg 84%
21:00 +20°C° 0 mm 5 mps 769 mmHg 86%
22:00 +20°C° 0 mm 5 mps 769 mmHg 88%
23:00 +20°C° 0 mm 4 mps 769 mmHg 90%

Day after tomorrow, 26 June, Saturday

Time Temperature Precipitation Wind Pressure Humidity
00:00 +19°C° 0 mm 4 mps 769 mmHg 93%
01:00 +19°C° 0 mm 4 mps 769 mmHg 95%
02:00 +19°C° 0 mm 3 mps 769 mmHg 96%
03:00 +19°C° 0 mm 3 mps 769 mmHg 97%
04:00 +19°C° 0 mm 3 mps 769 mmHg 98%
05:00 +21°C° 0 mm 3 mps 769 mmHg 92%
06:00 +22°C° 0 mm 3 mps 769 mmHg 87%
07:00 +25°C° 0 mm 3 mps 769 mmHg 81%
08:00 +26°C° 0 mm 3 mps 769 mmHg 76%
09:00 +27°C° 0 mm 4 mps 769 mmHg 70%
10:00 +28°C° 0 mm 4 mps 769 mmHg 65%
11:00 +29°C° 0 mm 5 mps 769 mmHg 64%
12:00 +29°C° 0 mm 5 mps 769 mmHg 63%
13:00 +29°C° 0 mm 6 mps 768 mmHg 62%
14:00 +28°C° 0 mm 6 mps 768 mmHg 65%
15:00 +28°C° 0 mm 5 mps 768 mmHg 67%
16:00 +27°C° 0 mm 5 mps 768 mmHg 69%
17:00 +26°C° 0 mm 5 mps 768 mmHg 76%
18:00 +25°C° 0 mm 5 mps 768 mmHg 83%
19:00 +23°C° 0 mm 4 mps 768 mmHg 89%
20:00 +23°C° 0 mm 4 mps 768 mmHg 91%
21:00 +22°C° 0 mm 4 mps 768 mmHg 92%
22:00 +22°C° 0 mm 4 mps 768 mmHg 94%
23:00 +22°C° 0 mm 5 mps 768 mmHg 94%

27 June, Sunday

Time Temperature Precipitation Wind Pressure Humidity
00:00 +22°C° 0 mm 5 mps 768 mmHg 94%
01:00 +22°C° 0 mm 5 mps 767 mmHg 94%
02:00 +22°C° 0 mm 5 mps 767 mmHg 94%
03:00 +22°C° 0 mm 5 mps 767 mmHg 95%
04:00 +22°C° 0 mm 4 mps 767 mmHg 96%
05:00 +23°C° 0 mm 5 mps 767 mmHg 92%
06:00 +23°C° 0 mm 5 mps 767 mmHg 88%
07:00 +25°C° 0 mm 5 mps 767 mmHg 84%
08:00 +26°C° 0 mm 5 mps 767 mmHg 79%
09:00 +27°C° 0 mm 6 mps 767 mmHg 74%
10:00 +28°C° 0 mm 6 mps 767 mmHg 69%
11:00 +28°C° 0 mm 6 mps 767 mmHg 69%
12:00 +28°C° 0 mm 6 mps 767 mmHg 68%
13:00 +28°C° 0 mm 7 mps 767 mmHg 67%
14:00 +28°C° 0 mm 7 mps 767 mmHg 69%
15:00 +27°C° 0 mm 7 mps 766 mmHg 71%
16:00 +27°C° 0 mm 7 mps 766 mmHg 72%
17:00 +26°C° 0 mm 7 mps 766 mmHg 77%
18:00 +24°C° 0 mm 6 mps 766 mmHg 82%
19:00 +23°C° 0 mm 6 mps 766 mmHg 86%
20:00 +22°C° 0 mm 6 mps 767 mmHg 88%
21:00 +22°C° 0 mm 6 mps 767 mmHg 89%
22:00 +22°C° 0 mm 6 mps 767 mmHg 91%
23:00 +22°C° 0 mm 6 mps 767 mmHg 91%

28 June, Monday

Time Temperature Precipitation Wind Pressure Humidity
00:00 +21°C° 0 mm 6 mps 767 mmHg 91%
01:00 +21°C° 0 mm 6 mps 766 mmHg 91%
02:00 +21°C° 0 mm 6 mps 767 mmHg 91%
03:00 +21°C° 0 mm 6 mps 767 mmHg 91%
04:00 +21°C° 0 mm 5 mps 767 mmHg 90%
05:00 +22°C° 0 mm 6 mps 767 mmHg 86%
06:00 +23°C° 0 mm 6 mps 767 mmHg 81%
07:00 +24°C° 0 mm 6 mps 767 mmHg 76%
08:00 +26°C° 0 mm 6 mps 767 mmHg 72%
09:00 +27°C° 0 mm 6 mps 767 mmHg 68%
10:00 +28°C° 0 mm 6 mps 768 mmHg 64%
11:00 +29°C° 0 mm 6 mps 767 mmHg 63%
12:00 +29°C° 0 mm 6 mps 767 mmHg 62%
13:00 +29°C° 0 mm 6 mps 767 mmHg 61%
14:00 +29°C° 0.3 mm 6 mps 767 mmHg 67%
15:00 +28°C° 0.3 mm 6 mps 767 mmHg 72%
16:00 +27°C° 0.3 mm 6 mps 767 mmHg 78%
17:00 +26°C° 0.4 mm 5 mps 767 mmHg 82%
18:00 +25°C° 0.4 mm 4 mps 767 mmHg 86%
19:00 +23°C° 0.4 mm 4 mps 767 mmHg 91%
20:00 +22°C° 0.2 mm 4 mps 768 mmHg 92%
21:00 +22°C° 0.2 mm 4 mps 768 mmHg 94%
22:00 +22°C° 0.2 mm 4 mps 768 mmHg 95%
23:00 +22°C° 0.1 mm 4 mps 768 mmHg 95%

29 June, Tuesday

Time Temperature Precipitation Wind Pressure Humidity
00:00 +22°C° 0.1 mm 4 mps 768 mmHg 94%
01:00 +22°C° 0.1 mm 4 mps 767 mmHg 94%
02:00 +22°C° 0 mm 4 mps 767 mmHg 94%
03:00 +22°C° 0 mm 4 mps 767 mmHg 94%
04:00 +22°C° 0 mm 4 mps 767 mmHg 94%
05:00 +22°C° 0 mm 5 mps 767 mmHg 90%
06:00 +23°C° 0 mm 5 mps 767 mmHg 85%
07:00 +24°C° 0 mm 6 mps 767 mmHg 81%
08:00 +26°C° 0 mm 6 mps 767 mmHg 76%
09:00 +27°C° 0 mm 6 mps 767 mmHg 71%
10:00 +28°C° 0 mm 7 mps 766 mmHg 65%
11:00 +28°C° 0 mm 7 mps 766 mmHg 64%
12:00 +28°C° 0 mm 8 mps 766 mmHg 63%
13:00 +28°C° 0 mm 8 mps 766 mmHg 62%
14:00 +28°C° 0 mm 8 mps 765 mmHg 63%
15:00 +27°C° 0 mm 8 mps 765 mmHg 64%
16:00 +27°C° 0 mm 8 mps 765 mmHg 65%
17:00 +26°C° 0 mm 8 mps 765 mmHg 70%
18:00 +24°C° 0 mm 8 mps 765 mmHg 76%
19:00 +23°C° 0 mm 8 mps 765 mmHg 81%
20:00 +22°C° 0.5 mm 7 mps 765 mmHg 86%
21:00 +22°C° 0.5 mm 6 mps 765 mmHg 90%
22:00 +21°C° 0.5 mm 5 mps 765 mmHg 94%
23:00 +21°C° 0.1 mm 5 mps 765 mmHg 95%
Show more

We Need Your Consent

Meteoprog and our Service Providers may store and access personal data such as cookies, device identifiers or other similar technologies on your device and process such data to personalise content and ads, as well as provide social media features and to analyse the traffic.

  • Store and/or access information on your device

    Cookies, device identifiers or other information can be stored or accessed on your device for the purposes indicated above.

  • Personalised ads and content, ad and content measurement, audience insights, and products development

    Ads and content can be personalised based on a profile. More data can be added to better personalise ads and content. Ad and content performance can be measured. Insights about the audience who saw the ads and content can be derived. Such data can be used to develop or improve user’s experience, systems and software.

By clicking ‘I Agree’ you will allow the use of indicated cookies, device identifiers, web beacons or other similar technologies. Your settings can be changed in the browser on your device.

For certain purposes, legitimate interests may be relied on, rather than consent. You can read more about this in our Privacy and Cookie Policy.